Ardabil, Iran

6:12 PM IRST on October 22, 2019 (GMT +0330)
Ardabil

Weather History for OITL - August, 2019

Change the Weather History Date:

Sunday, August 11, 2019

  Actual Average Record
Temperature  
Mean Temperature 61 °F -  
Max Temperature 69 °F - - ()
Min Temperature 53 °F - - ()
Degree Days  
Heating Degree Days 4    
Growing Degree Days 11 (Base 50)    
Moisture  
Dew Point 53 °F    
Average Humidity 73    
Maximum Humidity 94    
Minimum Humidity 53    
Precipitation  
Precipitation 0.00 in - - ()
Sea Level Pressure  
Sea Level Pressure 30.05 in    
Wind  
Wind Speed 13 mph ()    
Max Wind Speed 31 mph    
Max Gust Speed -    
Visibility 5.9 miles    
Events Fog    
T = Trace of Precipitation, MM = Missing Value Source: Averaged Metar Reports

Daily Weather History Graph

Daily Weather History Graph

Search for Another Location

Airport or City:

Astronomy

Aug. 11, 2019 Rise Set
Actual Time 6:26 AM IRDT 8:15 PM IRDT
Civil Twilight 5:58 AM IRDT 8:44 PM IRDT
Nautical Twilight 5:23 AM IRDT 9:18 PM IRDT
Astronomical Twilight 4:46 AM IRDT 9:55 PM IRDT
Moon 5:31 PM IRDT (8/11) 2:31 AM IRDT (8/11)
Length of Visible Light 14h 46m
Length of Day
13h 48m
Waxing Gibbous, 84% of the Moon is Illuminated
Aug 11
Waxing Gibbous
Aug 15
Full
Aug 23
Last Quarter
Aug 30
New
Sep 6
First Quarter

Hourly Weather History & Observations

Time (IRDT) Temp. Dew Point Humidity Pressure Visibility Wind Dir Wind Speed Gust Speed Precip Events Conditions
12:21 AM 62.6 °F 51.8 °F 68% 29.95 in 6.2 mi East 6.9 mph - N/A   Scattered Clouds
1:21 AM 60.8 °F 51.8 °F 72% 29.95 in 6.2 mi NNW 4.6 mph - N/A   Scattered Clouds
2:24 AM 59.0 °F 51.8 °F 77% 29.95 in 6.2 mi WSW 4.6 mph - N/A   Scattered Clouds
3:22 AM 55.4 °F 50.0 °F 82% 29.95 in 6.2 mi SW 6.9 mph - N/A   Scattered Clouds
4:44 AM 55.4 °F 50.0 °F 82% 29.95 in 6.2 mi East 6.9 mph - N/A   Scattered Clouds
5:22 AM 53.6 °F 50.0 °F 88% 29.98 in 6.2 mi East 6.9 mph - N/A   Partly Cloudy
6:21 AM 55.4 °F 50.0 °F 82% 29.98 in 6.2 mi East 4.6 mph - N/A   Scattered Clouds
7:23 AM 55.4 °F 50.0 °F 82% 30.01 in 6.2 mi Variable 2.3 mph - N/A   Scattered Clouds
7:30 AM 55.4 °F 50.0 °F 82% 30.01 in 6.2 mi Variable 2.3 mph - N/A   Scattered Clouds
8:21 AM 64.4 °F 51.8 °F 64% 30.04 in 6.2 mi Variable 2.3 mph - N/A   Scattered Clouds
8:30 AM 64.4 °F 51.8 °F 64% 30.04 in 6.2 mi Variable 2.3 mph - N/A   Scattered Clouds
9:20 AM 69.8 °F 51.8 °F 53% 30.04 in 6.2 mi East 13.8 mph - N/A   Scattered Clouds
9:30 AM 69.8 °F 51.8 °F 53% 30.04 in 6.2 mi East 13.8 mph - N/A   Scattered Clouds
10:00 AM 66.2 °F 51.8 °F 60% 30.06 in 6.2 mi ENE 31.1 mph - N/A   Scattered Clouds
10:22 AM 66.2 °F 51.8 °F 60% 30.06 in 6.2 mi ENE 28.8 mph - N/A   Scattered Clouds
11:00 AM 62.6 °F 55.4 °F 77% 30.09 in 6.2 mi ENE 19.6 mph - N/A Fog Light Drizzle
11:22 AM 60.8 °F 57.2 °F 88% 30.09 in 5.6 mi ENE 26.5 mph - N/A   Light Drizzle
11:30 AM 60.8 °F 57.2 °F 88% 30.09 in 5.6 mi ENE 26.5 mph - N/A   Light Drizzle
12:00 PM 59.0 °F 57.2 °F 94% 30.09 in 3.1 mi ENE 26.5 mph - N/A   Mostly Cloudy
12:22 PM 60.8 °F 57.2 °F 88% 30.09 in 2.5 mi ENE 24.2 mph - N/A   Mostly Cloudy
12:30 PM 60.8 °F 57.2 °F 88% 30.09 in 2.5 mi ENE 24.2 mph - N/A   Mostly Cloudy
1:24 PM 62.6 °F 55.4 °F 77% 30.09 in 6.2 mi ENE 31.1 mph - N/A   Mostly Cloudy
1:30 PM 62.6 °F 55.4 °F 77% 30.09 in 5.6 mi ENE 31.1 mph - N/A   Mostly Cloudy
2:21 PM 66.2 °F 55.4 °F 68% 30.06 in 6.2 mi ENE 31.1 mph - N/A   Mostly Cloudy
2:30 PM 66.2 °F 55.4 °F 68% 30.06 in 6.2 mi ENE 31.1 mph - N/A   Mostly Cloudy
3:21 PM 66.2 °F 53.6 °F 64% 30.06 in 6.2 mi ENE 28.8 mph - N/A   Partly Cloudy
3:30 PM 66.2 °F 53.6 °F 64% 30.06 in 6.2 mi ENE 28.8 mph - N/A   Partly Cloudy
4:22 PM 66.2 °F 51.8 °F 60% 30.04 in 6.2 mi ENE 26.5 mph - N/A   Partly Cloudy
5:21 PM 66.2 °F 51.8 °F 60% 30.04 in 6.2 mi ENE 28.8 mph - N/A   Partly Cloudy
5:30 PM 66.2 °F 51.8 °F 60% 30.04 in 6.2 mi ENE 28.8 mph - N/A   Partly Cloudy
6:21 PM 64.4 °F 51.8 °F 64% 30.06 in 6.2 mi ENE 26.5 mph - N/A   Partly Cloudy
6:30 PM 64.4 °F 51.8 °F 64% 30.06 in 6.2 mi ENE 26.5 mph - N/A   Partly Cloudy
7:22 PM 62.6 °F 51.8 °F 68% 30.06 in 6.2 mi ENE 18.4 mph - N/A   Partly Cloudy
7:30 PM 62.6 °F 51.8 °F 68% 30.06 in 6.2 mi ENE 18.4 mph - N/A   Partly Cloudy
8:21 PM 59.0 °F 51.8 °F 77% 30.09 in 6.2 mi ENE 13.8 mph - N/A   Partly Cloudy
9:20 PM 59.0 °F 51.8 °F 77% 30.09 in 6.2 mi ENE 16.1 mph - N/A   Partly Cloudy
10:21 PM 57.2 °F 53.6 °F 88% 30.12 in - ENE 16.1 mph - N/A   Clear
11:22 PM 57.2 °F 53.6 °F 88% 30.15 in - NE 13.8 mph - N/A   Clear